This is the latest recevied weather packets stored in our database for station/object WP3XM. If no packets are shown the sender has not sent any weather packets the latest 10 day(s).
| Time | Temp. | Humidity | Pressure | Rain* | Wind** | Luminosity | Snow |
|---|---|---|---|---|---|---|---|
| 1777545499 | 23.33° C | 96% | 1014.3 hPa | 0 mm | - | 34 W/m² | - |
| 1777545196 | 23.33° C | 96% | 1014.1 hPa | 0 mm | - | 31 W/m² | - |
| 1777544894 | 23.33° C | 96% | 1013.9 hPa | 0 mm | - | 26 W/m² | - |
| 1777544589 | 23.33° C | 96% | 1014.1 hPa | 0 mm | - | 22 W/m² | - |
| 1777544286 | 23.33° C | 96% | 1013.9 hPa | 0 mm | - | 16 W/m² | - |
| 1777543983 | 23.33° C | 95% | 1013.8 hPa | 0 mm | - | 11 W/m² | - |
| 1777543680 | 23.33° C | 95% | 1014 hPa | 0 mm | - | 7 W/m² | - |
| 1777543375 | 23.33° C | 95% | 1014 hPa | 0 mm | - | 4 W/m² | - |
| 1777543071 | 23.33° C | 95% | 1014 hPa | 0 mm | - | 2 W/m² | - |
| 1777542768 | 23.89° C | 95% | 1013.6 hPa | 0 mm | - | 1 W/m² | - |
| 1777542465 | 23.89° C | 95% | 1013.7 hPa | 0 mm | - | 0 W/m² | - |
| 1777542161 | 23.89° C | 95% | 1013.6 hPa | 0 mm | - | 0 W/m² | - |
| 1777541858 | 23.89° C | 95% | 1013.6 hPa | 0 mm | - | 0 W/m² | - |
| 1777541555 | 23.89° C | 95% | 1013.6 hPa | 0 mm | - | 0 W/m² | - |
| 1777541252 | 23.89° C | 95% | 1013.4 hPa | 0 mm | - | 0 W/m² | - |
| 1777540948 | 23.89° C | 95% | 1013.4 hPa | 0 mm | - | 0 W/m² | - |
| 1777540646 | 23.89° C | 95% | 1013.8 hPa | 0 mm | - | 0 W/m² | - |
| 1777540343 | 23.33° C | 95% | 1013.5 hPa | 0 mm | - | 0 W/m² | - |
| 1777540039 | 23.33° C | 95% | 1013.5 hPa | 0 mm | - | 0 W/m² | - |
| 1777539734 | 23.89° C | 95% | 1013.6 hPa | 0 mm | - | 0 W/m² | - |
| 1777539431 | 23.33° C | 95% | 1013.5 hPa | 0 mm | - | 0 W/m² | - |
| 1777539127 | 23.33° C | 95% | 1013.4 hPa | 0 mm | - | 0 W/m² | - |
| 1777538824 | 23.33° C | 95% | 1013.4 hPa | 0 mm | - | 0 W/m² | - |
| 1777538524 | 23.33° C | 95% | 1013.3 hPa | 0 mm | - | 0 W/m² | - |
| 1777538219 | 23.89° C | 94% | 1013.4 hPa | 0 mm | - | 0 W/m² | - |
* Rain latest hour (hover to see other rain measurements)
** Current wind speed in m/s (hover to see current wind gust speed)